Regional Weather Roundup
Issued by NWS

Home | Current Version | Previous Version | Graphics & Text | Print | Product List | Glossary On
Versions: 1 2 3 4 5 6 7 8 9 10 11 12 13 14 15 16 17 18 19 20 21 22 23 24 25 26 27 28 29 30 31 32 33 34 35 36 37 38 39 40 41 42 43 44 45 46 47 48 49 50
882
ASUS43 KMKX 281300
RWRWI

WISCONSIN REGIONAL WEATHER ROUNDUP
NATIONAL WEATHER SERVICE MILWAUKEE/SULLIVAN WI
800 AM CDT FRI APR 28 2017

NOTE: "FAIR" INDICATES FEW OR NO CLOUDS BELOW 12,000 FEET WITH NO
SIGNIFICANT WEATHER AND/OR OBSTRUCTIONS TO VISIBILITY.

WIZ001-002-006>008-014>016-023>028-281400-
NORTHWEST WISCONSIN

CITY           SKY/WX    TMP DP  RH WIND       PRES   REMARKS
SUPERIOR ARPT  CLOUDY    32  24  71 W10       29.83R WCI  24
ASHLAND        CLOUDY    31  24  75 W13       29.82R WCI  21
HAYWARD        CLOUDY    32  22  66 VRB7      29.83R WCI  26
SIREN          MOSUNNY   32  24  70 W9        29.86R WCI  25
CUMBERLAND     CLOUDY    32  23  69 W15G21    29.84R WCI  22
RICE LAKE      CLOUDY    33  26  77 W8        29.86R WCI  25
CHETEK         NOT AVBL
LADYSMITH      CLOUDY    33  26  76 SW9       29.84R WCI  25
EAU CLAIRE     NOT AVBL
MENOMONIE      CLOUDY    36  29  76 W10       29.86S WCI  29
NEW RICHMOND   SUNNY     35  22  60 NW10      29.88R WCI  27
OSCEOLA        SUNNY     34  24  67 NW8G17    29.91S WCI  27
$$

WIZ003>005-009-010-017-018-281400-
NORTH CENTRAL WISCONSIN

CITY           SKY/WX    TMP DP  RH WIND       PRES   REMARKS
MANITOWISH WTR CLOUDY    28  24  84 W10G17    29.76R WCI  19
ARBOR VITAE    CLOUDY    32  26  80 W7G17     29.76R WCI  25
WOODRUFF       CLOUDY    32  26  80 W7G17     29.76R WCI  25
RHINELANDER    MIX PCPN  31  25  78 W12       29.79R WCI  22
EAGLE RIVER    CLOUDY    29  22  75 W15       29.76R WCI  18
LAND O LAKES   CLOUDY    29  24  79 W8G20     29.76S WCI  21
PHILLIPS       CLOUDY    29  26  86 W7        29.79R WCI  22
TOMAHAWK       CLOUDY    30  24  78 W6        29.81R WCI  24
MEDFORD        SUNNY     31  25  77 W10G16    29.81R WCI  22
MERRILL        CLOUDY    32  26  80 W9        29.82R WCI  24
$$

WIZ029-030-035-036-043>047-281400-
CENTRAL WISCONSIN

CITY           SKY/WX    TMP DP  RH WIND       PRES   REMARKS
WAUSAU         CLOUDY    33  25  72 W9        29.82R WCI  25
MOSINEE        MOSUNNY   34  27  75 W12G18    29.85R WCI  25
MARSHFIELD     CLOUDY    35  24  64 W13       29.84R WCI  26
STEVENS POINT  CLOUDY    33  24  71 W10G16    29.86R WCI  24
WAUPACA        CLOUDY    38  27  64 W14       29.87R WCI  30
WAUTOMA        MOSUNNY   38  27  64 W9        29.89R WCI  31
WISC RAPIDS    CLOUDY    36  27  69 NW12G18   29.87R WCI  28
CAMP DOUGLAS   NOT AVBL
$$

WIZ011>013-019>022-031-037>040-048>050-281400-
NORTHEAST WISCONSIN

CITY           SKY/WX    TMP DP  RH WIND       PRES   REMARKS
ANTIGO         CLOUDY    30  26  84 W8        29.81R WCI  22
SHAWANO        CLOUDY    37  27  68 W13G18    29.86R WCI  28
OCONTO         CLOUDY    35  26  69 W9        29.86R WCI  27
STURGEON BAY   CLOUDY    36  25  64 W13       29.87R WCI  27
GREEN BAY      CLOUDY    37  30  75 W13       29.87R WCI  29
MANITOWOC      NOT AVBL
APPLETON       CLOUDY    36  25  64 W14       29.86R WCI  27
CLINTONVILLE   CLOUDY    34  27  75 W8        29.87R WCI  27
OSHKOSH        CLOUDY    37  28  70 W9        29.89R WCI  30
$$

WIZ032>034-041-042-053>061-281400-
SOUTHWEST WISCONSIN

CITY           SKY/WX    TMP DP  RH WIND       PRES   REMARKS
LA CROSSE      SUNNY     39  29  67 CALM      29.89R
SPARTA         SUNNY     35  30  82 CALM      29.89R
VIROQUA        SUNNY     32  29  87 CALM      29.87R
BOSCOBEL       SUNNY     38  29  70 CALM      29.92R
PRAIRIE DU CHI SUNNY     35  29  80 CALM      29.91R
PLATTEVILLE    MOSUNNY   34  32  92 N5        29.90R WCI  30
$$

WIZ056-057-062-063-064-067-068-281400-
SOUTH CENTRAL WISCONSIN

CITY           SKY/WX    TMP DP  RH WIND       PRES   REMARKS
REEDSBURG      SUNNY     35  28  76 SW3       29.89R
BARABOO/DELLS  SUNNY     35  28  77 SW3       29.89S
LONE ROCK      NOT AVBL
MINERAL POINT  SUNNY     34  32  93 NW3       29.90R
MADISON        PTSUNNY   37  30  75 CALM      29.91R
MIDDLETON      MOSUNNY   37  32  83 CALM      29.91R
WATERTOWN      SUNNY     37  33  87 W3        29.91R
MONROE         SUNNY     36  30  80 NW8       29.90R WCI  29
JANESVILLE     MOSUNNY   39  32  75 NW7       29.91R WCI  34
$$

WIZ051-052-058>065-066-070>072-281400-
SOUTHEAST WISCONSIN

CITY           SKY/WX    TMP DP  RH WIND       PRES   REMARKS
MILWAUKEE      MOSUNNY   42  32  67 W7        29.92R
WAUKESHA       MOSUNNY   37  32  81 SW3       29.93R
MILWAUKEE/TIMM SUNNY     39  30  70 W7        29.93R WCI  34
RACINE         SUNNY     41  31  67 W5        29.95R
KENOSHA        MOSUNNY   42  33  70 W6        29.94R
FOND DU LAC    CLOUDY    37  28  70 W6        29.90R WCI  32
SHEBOYGAN      CLOUDY    38  32  79 W10       29.90R WCI  31
WEST BEND      CLOUDY    36  32  87 NW9       29.90R WCI  29
JUNEAU         CLOUDY    36  30  78 W3        29.91R
$$

LSZ147-162-281400-
LAKE SUPERIOR

STATION/POSITION TIME  TEMP    WIND        PRES    WAVE
                       AIR SEA DIR/SP/G            HT/PER
                 (UTC) (F)     (DEG/KT/KT) (MB)    (FT/S)
DEVILS ISLAND    1200   32     270/ 23/ 26 1008.5R
PORT WING        1240   33     280/ 17/ 23 1009.8R
SAXON HARBOR     1230   31     230/  6/ 13 1009.1R
$$

LMZ867-665-643>646-281400-
LAKE MICHIGAN

STATION/POSITION TIME  TEMP    WIND        PRES    WAVE
                       AIR SEA DIR/SP/G            HT/PER
                 (UTC) (F)     (DEG/KT/KT) (MB)    (FT/S)
CHAMBERS ISLAND  1240   35     230/  6/ 14 1010.5R
N MID LAKE BUOY  1150   34 37  270/ 19/ 23 1011.1R   3/ 4
NORTHPORT PIER   1240   35     260/  5/ 11 1010.8R
KEWAUNEE LAKESHO 1230   36     280/ 11/ 15 1011.1R
SHEBOYGAN LAKESH 1200   38     250/ 11/ 14 1012.3R
PORT WASHINGTON  1240   40     280/  3/ 10 1013.9R
MILWAUKEE LAKESH 1230   40     280/  4/  6   N/A
S MID LAKE BUOY  1150   41 41  310/  6/  6 1013.5R   2/ 4
KENOSHA   LAKESH 1200   40     260/  3/  6 1013.2
$$

TC  - TEMPERATURE IN CELSIUS
VSB - VISIBILITY IN STATUTE MILES
WCI - WIND CHILL INDEX
HX  - HEAT INDEX





USA.gov is the U.S. government's official web portal to all federal, state and local government web resources and services.